Regional Weather Roundup
Issued by NWS Mt. Holly, NJ

Home | Current Version | Previous Version | Text Only | Print | Product List | Glossary On
Versions: 1 2 3 4 5 6 7 8 9 10 11 12 13 14 15 16 17 18 19 20 21 22 23 24 25 26 27 28 29 30 31 32 33 34 35 36 37 38 39 40 41 42 43 44 45 46 47 48 49 50
000
ASUS41 KPHI 011912
RWRPHI

REGIONAL WEATHER ROUNDUP
NATIONAL WEATHER SERVICE MOUNT HOLLY NJ
300 PM EDT SAT OCT 01 2016

NOTE:  "FAIR" INDICATES FEW OR NO CLOUDS BELOW 12,000 FEET WITH NO
SIGNIFICANT WEATHER AND/OR OBSTRUCTIONS TO VISIBILITY.

 * = STATION DOES NOT REPORT PRECIPITATION (E.G. RAIN, SNOW, ETC.)
        OR FOG.

NJZ015>026-012000-
SOUTHERN NEW JERSEY

CITY           SKY/WX    TMP DP  RH WIND       PRES   REMARKS
POMONA         CLOUDY    64  62  93 NE10      30.12S FOG
WILDWOOD*      LGT RAIN  66  65  96 NE12      30.09F FOG
MILLVILLE      CLOUDY    65  65 100 E10       30.10F
WRIGHTSTOWN    CLOUDY    63  60  91 NE12      30.11F
MOUNT HOLLY    CLOUDY    63  60  90 VRB5      30.13F
TRENTON        CLOUDY    62  58  86 E12       30.14F

$$
NJZ001>014-012000-
NORTHERN NEW JERSEY

CITY           SKY/WX    TMP DP  RH WIND       PRES   REMARKS
SUSSEX         CLOUDY    58  56  93 NE8       30.19F
ANDOVER*         N/A     58  56  93 NE5       30.18F
MORRISTOWN     CLOUDY    61  57  88 E12       30.17F
NEWARK         CLOUDY    63  57  81 NE13      30.17F
TETERBORO      CLOUDY    63  55  77 NE6       30.16F
CALDWELL       CLOUDY    61  58  90 E8        30.18F
SOMERVILLE     CLOUDY    62  57  83 VRB6      30.15F
ALLAIRE*       CLOUDY    62  60  93 NE9       30.16F
TOMS RIVER*    CLOUDY    63  62  97 NE9       30.15F FOG

$$
PAZ043-044-047-054-055-060>062-066>071-012000-
EASTERN PENNSYLVANIA

CITY           SKY/WX    TMP DP  RH WIND       PRES   REMARKS
PHILADELPHIA   CLOUDY    64  60  87 NE8G20    30.13F
NORTH PHILA    CLOUDY    64  60  87 NE8       30.15F
BLUE BELL*     CLOUDY    59  57  94 NE9       30.13F
DOYLESTOWN     CLOUDY    62  59  90 VRB3      30.14F
QUAKERTOWN*    CLOUDY    59  57  94 E8        30.16F
PERKASIE*      CLOUDY    59  59 100 NE6       30.16F
POTTSTOWN      CLOUDY    60  57  89 NE8       30.15F
LANCASTER      LGT RAIN  61  60  97 E12       30.11F
COATESVILLE    CLOUDY    59  59 100 E14G23    30.13F FOG
READING        LGT RAIN  61  58  90 E5        30.12S
ALLENTOWN      CLOUDY    62  56  80 NE10      30.15F
MOUNT POCONO   FOG       53  53 100 E8        30.17F VSB 1/4
HAZLETON       CLOUDY    59  55  88 E8        30.17S
LEHIGHTON        N/A     59  55  88 E3        30.16F
WILKES BARRE   CLOUDY    64  57  78 E8        30.14F

$$
DEZALL-MDZ008-012-015-019-020-012000-
DELAWARE AND EASTERN MARYLAND

CITY           SKY/WX    TMP DP  RH WIND       PRES   REMARKS
WILMINGTON     CLOUDY    64  60  87 NE13      30.12F
DOVER          CLOUDY    66  66 100 NE14G20   30.07F
GEORGETOWN     CLOUDY    68  68 100 E8        30.08F FOG
EASTON         CLOUDY    72  66  83 E9        30.09F
PATUXENT       CLOUDY    72  69  90 E10       30.04F
OCEAN CITY     CLOUDY    70  69  97 E9        30.06F
WALLOPS ISLAND CLOUDY    75  73  93 SE8       30.06S
SALISBURY      CLOUDY    73  71  93 E13       30.05F

$$
PAZ001-021-NYZ056-072-MDZ011-DCZ001-012000-
OTHER NEARBY LOCATIONS

CITY           SKY/WX    TMP DP  RH WIND       PRES   REMARKS
HARRISBURG     LGT RAIN  60  60 100 NE5       30.11F
STATE COLLEGE  CLOUDY    57  55  94 CALM      30.12F FOG
WILLIAMSPORT   CLOUDY    61  58  90 CALM      30.11F
BINGHAMTON     CLOUDY    60  56  86 E9        30.15F
NEW YORK CITY  CLOUDY    61  56  83 E5        30.20F
BALTIMORE      LGT RAIN  62  61  96 N5        30.09F FOG
WASHINGTON DC  CLOUDY    66  65  96 N9        30.09F

$$



USA.gov is the U.S. government's official web portal to all federal, state and local government web resources and services.